sat.trackr.live / text

‹ back to catalog

STARLINK-32934

NORAD 63200 · 2025-048T

PAYLOAD ACTIVE UNKNOWN

§ Identity

Operator
Country
US
Launch date
2025-03-13
Launch site
AFETR
Launch vehicle
Mass (kg)
RCS (m²)

Purposes: comms

External: N2YO · Heavens-Above · Gunter

§ Orbital elements

Epoch: 2026-09-19T22:37:39.810432Z

Period
94.27 min
Inclination
42.9957°
Eccentricity
0.0001508
Mean motion
15.27589484 rev/d
Perigee alt
482.0 km
Apogee alt
484.1 km
Semi-major
6,861.2 km
B*
6.0957e-4
RAAN
68.0239°
Arg perigee
313.9130°
Mean anomaly
46.1597°
Rev number
8,680

§ Raw data

STARLINK-329341 63200U 25048T   26262.94282188  .00016555  00000+0  60957-3 0  99912 63200  42.9957  68.0239 0001508 313.9130  46.1597 15.27589484 86808

JSON: /api/v1/satellites/63200 · /tle

For live sub-satellite position, see the globe view (requires WebGL).

§ Visibility from observer

Set your observer location to see the next 7 days of passes ≥ 10°. The values pass through the URL so the page stays shareable.

No JS? Fill the form by hand. The geolocation button needs JavaScript.